Milwaukee, WI

9:19 PM CST on February 27, 2017 (GMT -0600)
Gen Mitchell International

Weather History for KMKE - December, 2013

Change the Weather History Date:

Saturday, December 7, 2013

  Actual Average Record
Temperature  
Mean Temperature 11 °F 29 °F  
Max Temperature 17 °F 35 °F 60 °F (1946)
Min Temperature 4 °F 23 °F -13 °F (1882)
Degree Days  
Heating Degree Days 54 36  
Month to date heating degree days 250 243  
Since 1 July heating degree days 1625 1608  
Cooling Degree Days 0 0  
Month to date cooling degree days 0 0  
Year to date cooling degree days 688 641  
Moisture  
Dew Point -2 °F    
Average Humidity 62    
Maximum Humidity 76    
Minimum Humidity 47    
Precipitation  
Precipitation 0.00 in 0.07 in 0.77 in (1892)
Month to date precipitation 0.31 0.54  
Year to date precipitation 38.54 33.26  
Snow  
Snow 0.00 in 0.30 in 6.80 in (1950)
Month to date snowfall T 2.1  
Since 1 July snowfall 2.0 4.8  
Snow Depth 0.00 in    
Sea Level Pressure  
Sea Level Pressure 30.66 in    
Wind  
Wind Speed 8 mph (WNW)    
Max Wind Speed 15 mph    
Max Gust Speed 20 mph    
Visibility 10 miles    
Events      
T = Trace of Precipitation, MM = Missing Value Source: NWS Daily Summary

Daily Weather History Graph

Daily Weather History Graph

Search for Another Location

Airport or City:

Trip Planner

Search our weather history database for the weather conditions in past years. The results will help you decide how hot, cold, wet, or windy it might be!

Date:

Astronomy

Dec. 07, 2013 Rise Set
Actual Time 7:09 AM CST 4:17 PM CST
Civil Twilight 6:37 AM CST 4:49 PM CST
Nautical Twilight 6:01 AM CST 5:24 PM CST
Astronomical Twilight 5:27 AM CST 5:59 PM CST
Moon 10:49 AM CST (12/7) 10:04 PM CST (12/7)
Length of Visible Light 10h 11m
Length of Day
9h 07m
Waxing Crescent, 29% of the Moon is Illuminated
Dec 7
Waxing Crescent
Dec 9
First Quarter
Dec 17
Full
Dec 25
Last Quarter
Jan 1
New

Hourly Weather History & Observations

Time (CST) Temp. Windchill Dew Point Humidity Pressure Visibility Wind Dir Wind Speed Gust Speed Precip Events Conditions
12:52 AM 9.0 °F -5.1 °F -0.9 °F 64% 30.57 in 10.0 mi WNW 10.4 mph - N/A   Clear
1:52 AM 8.1 °F -7.7 °F -0.9 °F 67% 30.59 in 10.0 mi WNW 12.7 mph - N/A   Clear
2:52 AM 7.0 °F -8.3 °F -0.9 °F 70% 30.60 in 10.0 mi WNW 11.5 mph - N/A   Clear
3:52 AM 6.1 °F -8.7 °F -2.0 °F 69% 30.61 in 10.0 mi NW 10.4 mph - N/A   Clear
4:52 AM 5.0 °F -10.0 °F -2.9 °F 70% 30.63 in 10.0 mi WNW 10.4 mph - N/A   Clear
5:52 AM 3.9 °F -11.3 °F -5.1 °F 66% 30.65 in 10.0 mi NW 10.4 mph - N/A   Clear
6:52 AM 3.9 °F -10.4 °F -4.0 °F 70% 30.67 in 10.0 mi WNW 9.2 mph - N/A   Partly Cloudy
7:52 AM 3.9 °F -13.7 °F -5.1 °F 66% 30.69 in 10.0 mi WNW 13.8 mph 19.6 mph N/A   Partly Cloudy
8:52 AM 6.1 °F -9.5 °F -4.0 °F 63% 30.71 in 10.0 mi WNW 11.5 mph - N/A   Partly Cloudy
9:52 AM 9.0 °F -3.2 °F -2.9 °F 59% 30.72 in 10.0 mi NW 8.1 mph - N/A   Partly Cloudy
10:52 AM 10.9 °F 0.2 °F -2.0 °F 56% 30.71 in 10.0 mi West 6.9 mph - N/A   Partly Cloudy
11:52 AM 12.9 °F 0.7 °F -2.0 °F 51% 30.69 in 10.0 mi WNW 9.2 mph - N/A   Partly Cloudy
12:52 PM 15.1 °F 1.8 °F -0.9 °F 49% 30.68 in 10.0 mi West 11.5 mph - N/A   Partly Cloudy
1:52 PM 17.1 °F 6.6 °F -0.9 °F 45% 30.66 in 10.0 mi West 8.1 mph - N/A   Scattered Clouds
2:52 PM 17.1 °F 5.8 °F -0.9 °F 45% 30.66 in 10.0 mi WNW 9.2 mph - N/A   Scattered Clouds
3:52 PM 16.0 °F 7.4 °F -0.9 °F 47% 30.67 in 10.0 mi WNW 5.8 mph - N/A   Partly Cloudy
4:52 PM 15.1 °F 6.4 °F -0.9 °F 49% 30.67 in 10.0 mi West 5.8 mph - N/A   Partly Cloudy
5:52 PM 14.0 °F 6.5 °F -0.9 °F 52% 30.67 in 10.0 mi WNW 4.6 mph - N/A   Clear
6:52 PM 12.9 °F - -0.0 °F 56% 30.66 in 10.0 mi Calm Calm - N/A   Clear
7:52 PM 12.0 °F 4.1 °F -0.9 °F 56% 30.65 in 10.0 mi NNW 4.6 mph - N/A   Clear
8:52 PM 12.9 °F - -0.9 °F 54% 30.64 in 10.0 mi Calm Calm - N/A   Clear
9:52 PM 10.9 °F 4.7 °F -0.9 °F 59% 30.64 in 10.0 mi NW 3.5 mph - N/A   Partly Cloudy
10:52 PM 10.9 °F 1.4 °F -2.0 °F 56% 30.63 in 10.0 mi NW 5.8 mph - N/A   Partly Cloudy
11:52 PM 10.9 °F 1.4 °F -2.0 °F 56% 30.64 in 10.0 mi NW 5.8 mph - N/A   Partly Cloudy